Content
SEND FEEDBACK

Daily
Averages
Monthly
Summary
United States of America

PORTHILL, IDAHO


Home > North America > United States > Idaho
Elevation: 1814 feet     Latitude: 49 00N     Longitude: 116 30W

WEATHER
 
SELECT A DAY
Number of Records: 142,310;   Date Range: 1/1/95 - 12/23/14
 
SHARE

PRINT THIS DATA

[ ← Previous Day ]
WEATHER ALMANAC - JANUARY 31, 2013
[ Next Day → ]
[ °C ]   °F
Weather ElementAverageHighLow
Temperature35.3 °F39.4 °F (4:00 pm)31.5 °F (2:00 am)
Dewpoint32.1 °F34.2 °F (12:00 pm)30.2 °F (2:00 am)
Humidity87.5 %97 % (9:00 am)77 % (5:00 pm)
Barometer30.23 in30.28 in (10:00 am)30.17 in (10:00 pm)
Wind Speed1.7 mph4.6 mph (1:00 pm)
Weather ElementAverage
Wind DirectionSSW (191.5 °)

Weather ElementTotal
Precipitation---
Heating Degree Days29.6 (Base 65)
Averaged from 27 records on January 31, 2013
WEATHER CONDITIONS BREAKOUT
WIND DIRECTION BREAKOUT
WEATHER BY HOUR - JANUARY 31, 2013
[ °C ]   °F
Local TimeTemperatureDewpointHumidityBarometerVisibilityWind DirectionWind SpeedGust SpeedPrecipitationEventsConditions
1:00 AM33.1 °F30.4 °F90 %30.23 inWNW (290°)1.2 mph
2:00 AM31.5 °F30.2 °F95 %30.23 inENE (70°)1.2 mph
3:00 AM33.3 °F30.6 °F90 %30.25 inCalm
4:00 AM31.5 °F30.4 °F96 %30.25 inESE (120°)1.2 mph
5:00 AM33.0 °F31.0 °F87 %30.25 inCalm
5:00 AM32.9 °F30.6 °F91 %30.25 inCalm
6:00 AM33.3 °F31.1 °F92 %30.26 inNW (310°)1.2 mph
7:00 AM31.6 °F30.2 °F94 %30.26 inESE (110°)1.2 mph
8:00 AM31.8 °F30.7 °F96 %30.27 inCalm
9:00 AM31.5 °F30.7 °F97 %30.27 inESE (120°)1.2 mph
10:00 AM33.8 °F31.8 °F92 %30.28 inENE (70°)3.5 mph
11:00 AM35.0 °F32.0 °F83 %30.28 inNNW (330°)1.2 mph
11:00 AM35.1 °F31.8 °F88 %30.28 inNNW (330°)1.2 mph
12:00 PM39.2 °F34.2 °F82 %30.27 inWest (260°)1.2 mph
1:00 PM37.6 °F32.9 °F83 %30.25 inWNW (300°)4.6 mph
2:00 PM37.8 °F32.9 °F83 %30.24 inNW (320°)4.6 mph
3:00 PM38.1 °F33.1 °F82 %30.23 inWNW (300°)2.3 mph
4:00 PM39.4 °F33.1 °F78 %30.22 inNNE (20°)1.2 mph
5:00 PM38.0 °F33.0 °F77 %30.21 inNW (310°)3.5 mph
5:00 PM38.3 °F33.3 °F82 %30.21 inNW (310°)3.5 mph
6:00 PM38.1 °F33.3 °F83 %30.21 inNW (320°)3.5 mph
7:00 PM37.6 °F33.4 °F85 %30.20 inWNW (290°)1.2 mph
8:00 PM36.0 °F31.6 °F84 %30.20 inNorth (10°)1.2 mph
9:00 PM37.4 °F33.6 °F86 %30.18 inSouth (170°)1.2 mph
10:00 PM36.7 °F33.6 °F89 %30.17 inCalm
11:00 PM36.0 °F33.0 °F87 %30.17 inNW (310°)2.3 mph
11:00 PM36.1 °F33.4 °F90 %30.17 inNW (310°)2.3 mph
Hourly data recorded from CWJR, located miles away from Porthill, Idaho







STORIES FROM OUR PARTNERS